My Meet Scores
Sarah Mintz, Y.W.C.A Tumblettes-Tumblers - MyMeetScores.com
Top100 | Top Teams | Upcoming Meets | Completed Meets | Latest | Add Scores | Help| Support | Bookmark and Share

Sarah Mintz, Y.W.C.A Tumblettes-Tumblers
Personal Bests
LevelVault BarsBeamFloorAA
39.4259.225 9.0009.32536.650
49.1008.950 9.3259.30036.225
59.6008.925 8.7009.35035.750
69.2509.000 8.9509.40036.150
79.2259.175 9.4259.45036.525
Meet Scores
Date Meet Team Session Level Division Vault Bars Beam Floor AA
2020-03-06 2020 Heartland Spring Classic Y.W.C.A Tumblettes-Tumblers 5NI 7 Older 9.225 2 8.750 5 9.425 3 9.125 6 36.525 2
2020-01-10 New Years Blast Y.W.C.A Tumblettes-Tumblers 1 7 Senior 9.050 4 8.900 3 8.200 3 9.450 1 35.600 2
2019-12-14 Solstice Celebration Y.W.C.A Tumblettes-Tumblers 5 7 Older 8.700 3T 9.175 1 8.600 4 9.350 1 35.825 2T
2019-03-08 2019 NYS Level 7 & 8 State Championship Y.W.C.A Tumblettes-Tumblers 02 7 Sr A 8.675 13 8.500 13T 8.475 11 9.400 6T 35.050 13
2019-02-08 Popstar Invitational Y.W.C.A Tumblettes-Tumblers 8 7 Older 9.000 3 8.650 2T 8.800 6 9.175 3 35.625 2
2019-01-25 Kinetic Kids Invitational 2019 Y.W.C.A Tumblettes-Tumblers 7 7 Younger 8.500 9T 8.350 9T 7.400 10 9.050 7T 33.300 11
2019-01-11 2019 New Years Blast Y.W.C.A Tumblettes-Tumblers 5 7 Intermediate 8.850 4 8.750 3 8.850 4 9.300 1 35.750 1
2018-04-19 New York State Championships Level 5/6 Y.W.C.A Tumblettes-Tumblers 03 6 Sr A 8.850 7 8.875 4 8.525 17T 9.125 5T 35.375 8
2018-03-16 Beach Party Y.W.C.A Tumblettes-Tumblers 6 Intermediate 9.200 3 8.600 8 8.375 14 9.100 9 35.275 9
2018-03-01 Holiday Costume Cup 2018 Y.W.C.A Tumblettes-Tumblers 9 6 Younger 9.200 6T 8.500 7T 8.775 12 8.750 12 35.225 10
2018-01-20 Kindlemann Winter Classic Y.W.C.A Tumblettes-Tumblers 3 6 junior 9.125 2 8.500 8T 8.950 8T 9.025 6 35.600 4
2017-12-02 I Love Gymnastics Y.W.C.A Tumblettes-Tumblers 5 6 Junior 9.175 2 9.000 5 8.300 9T 9.400 9 35.875 6
2017-11-17 2017 Judges Cup Balloon Classic Y.W.C.A Tumblettes-Tumblers 2 6 12 9.250 2T 8.925 4 8.675 8 9.300 2 36.150 2
2017-05-12 2017 New York Level 5 & 6 State Championships Y.W.C.A Tumblettes-Tumblers 5-2 5 Jr D 9.075 4 8.500 9 7.775 19 9.250 4 34.600 9
2017-04-08 Springtime Classic Y.W.C.A Tumblettes-Tumblers 2 5 junior 9.350 4 8.700 4 8.525 7 9.100 6T 35.675 3
2017-03-24 Princess Classic 2017 Y.W.C.A Tumblettes-Tumblers 6 5 Jr. 9.475 1 8.925 6 8.000 16T 9.350 5T 35.750 5
2017-03-03 Long Island Classic Y.W.C.A Tumblettes-Tumblers 2 5 Middle 9.500 1 8.400 2 7.000 16 9.100 2 34.000 6
2017-02-03 Popstar Invitational Y.W.C.A Tumblettes-Tumblers 5 5 Younger 9.600 2 7.900 3 8.700 8 9.325 1 35.525 2
2017-01-13 New York Celebration Y.W.C.A Tumblettes-Tumblers 04 5 Older 9.375 1 8.200 5 8.525 7 8.650 3 34.750 4
2016-12-17 Solstice Celebration Y.W.C.A Tumblettes-Tumblers 4 5 Middle 9.125 2 8.525 6 7.900 12 9.175 2T 34.725 3
2016-05-13 2016 New York Level 5 & 6 State Championship Y.W.C.A Tumblettes-Tumblers 3 5 Jr A 9.275 3 8.025 13 8.200 15 9.100 6 34.600 12
2016-05-01 Peace Love Gymnastics Invitational Y.W.C.A Tumblettes-Tumblers 2 5 Younger 9.200 5T 7.200 24 7.825 28 8.525 16 32.750 22
2016-04-08 Get Ready For States Y.W.C.A Tumblettes-Tumblers 3 5 10 yrs 8.900 9 8.575 7T 8.100 12 9.150 7 34.725 8
2016-01-22 2016 Cirque de Galaxy Y.W.C.A Tumblettes-Tumblers 10 5 9 & 10 8.725 7T 8.475 6 8.000 12 9.050 5T 34.250 9
2015-12-19 Solstice Celebration Y.W.C.A Tumblettes-Tumblers 3 5 Younger 8.450 6 7.850 7 7.250 9 9.000 5 32.550 8
2015-05-29 2015 New York Level 4 Downstate Championships Y.W.C.A Tumblettes-Tumblers 3 4 Jr B 9.050 6T 8.650 13 9.325 20 9.200 6 36.225 9
2015-05-02 Mother's Day Madness Y.W.C.A Tumblettes-Tumblers 4 Junior 8.700 8T 8.950 9 9.000 18T 9.300 13 35.950 12
2015-03-20 Beach Party Y.W.C.A Tumblettes-Tumblers 2 4 Child 8.700 8 8.600 5 8.600 11 9.200 4 35.100 5
2015-02-27 Long Island Classic Y.W.C.A Tumblettes-Tumblers E10 4 Middle 8.000 8 7.600 7T 8.825 9 9.000 4 33.425 6
2015-01-31 Spirit Of America Y.W.C.A Tumblettes-Tumblers 5 4 9 yr olds 8.200 8 7.900 10 8.600 10 9.100 7 33.800 10
2015-01-16 2015 Cirque de Galaxy Y.W.C.A Tumblettes-Tumblers 13 4 9 9.100 1 7.800 8 8.000 12 9.100 3 34.000 6
2014-12-05 Kick Off Classic Y.W.C.A Tumblettes-Tumblers 4 4 Junior 8.600 5T 8.250 7 7.825 18 8.725 7 33.400 7
2014-06-06 2014 New York Level 2, 3 States Y.W.C.A Tumblettes-Tumblers 5 3 Jr C 9.225 3T 9.100 5 9.000 13 9.325 10T 36.650 4
2014-04-25 Flower Festival Y.W.C.A Tumblettes-Tumblers 6 3 All Ages 9.000 16T 9.225 9 8.950 45T 9.175 48T 36.350 16
2014-02-28 Long Island Classic Y.W.C.A Tumblettes-Tumblers A6 3 Sophmore 8.850 14T 8.150 17 8.500 13T 8.675 15 34.175 15
2014-01-17 Cirque de Galaxy 2014 Y.W.C.A Tumblettes-Tumblers 01 3 8 & Under 8.650 7T 8.500 3 8.650 9 8.650 10 34.450 5
2013-12-13 Big Apple Holiday Classic Y.W.C.A Tumblettes-Tumblers 7 3 8 9.425 7 8.750 9T 8.100 19T 9.050 12T 35.325 14
2013-06-07 2013 New York Level 3, 4 State Meet Y.W.C.A Tumblettes-Tumblers All 4 Ch D 8.900 17T 8.300 15 8.750 14 8.925 18 34.875 17
2013-01-18 Cirque De Galaxy Y.W.C.A Tumblettes-Tumblers 11 4 7 & Under 8.350 11 8.150 9 8.150 10 8.275 9 32.925 8
Get your scores on
a t-shirt, pin, or hoodie

www.lazysuits.com